COSMOS 1275 DEB, 42118

Orbit data source: Space-Track

COSMOS 1275 DEB, 42118 is space debris in LEO originally from a launch on Thu, 04 Jun 1981 UTC launched from the Plesetsk Missile And Space Complex (PKMTR). Debris objects in space refer to the collection of defunct objects orbiting the Earth. Examples of debris include non-operational satellites, rocket bodies, and fragments generated from explosions, collisions, or faulty payload assembly.

Loading next visibility...
Identifier
42118, 1981-053QE
Orbit
LEO
Country
Flag of CISCIS
Related business
Manufacturer
Unknown
Mission
Spacecraft
Bus & Motor
Unknown
Mass
Unknown
Launch date (UTC)
1981-06-04 (44 years ago)
Launch vehicle
Unknown
Launch site
Plesetsk Missile And Space Complex (PKMTR)
Object type
Payload
Rocket body
Debris
Shape & HBR
Unknown shape, 0.1 m
Radar Cross Section
Small (<0.1 m²)

Expand to show TLE details & history
Last TLE update: 14 hours ago

TLE from 14 hours ago
0 COSMOS 1275 DEB
1 42118U 81053QE  25295.94785486  .00013974  00000-0  35490-2 0  9994
2 42118  82.9527  10.5021 0040445 151.4979 208.8443 14.50181184616299
Epoch: 2025-10-22T22:44Z
TLE epoch observation values (Epoch: 2025-10-22T22:44:54.659Z)
Latitude
-0.00006°
Longitude
-2.3398°
Altitude
753.258 km
Speed
7.465 km/s
True Right ascension
00h 42m 00s
True Declination
0° 00' 00"
Sunlit
Object was in full shadow at epoch
Visualization orbit readout
Latitude
Unknown
Longitude
Unknown
Altitude
Unknown
Speed
Unknown
Apparent Right ascension
Unknown
Apparent Declination
Unknown
Sunlit
N/A
Visualization observer readout
Local Sidereal Time
08:03:43
Azimuth
Unknown
Elevation
Unknown
Doppler factor
Unknown
Orbital elements
Apogee altitude
750.819 km
Perigee altitude
693.385 km
Semi-major axis
7,100.239 km
Eccentricity
0.00404
Inclination
82.9527°
RAAN
10.5021°
Arg. of periapsis
151.4979°
True anomaly
208.6217°
Mean anomaly
208.8443°
Eccentric anomaly
208.7329°
Mean motion
3.62772 °/min
Orbital period
99.24 mins
BSTAR
0.003549
Loading maneuver chart data...
Computing Atmospheric mass density...

Documentation

Showing up to 5 results
|